GW2468 Weather Reports


time (UTC)temp
C
wind
direction
speed
KPH
gust
KPH
rain 1hr
cm
rain 24hr
cm
rain mn
cm
humidity
%
barometer
mb
20260506202415 14 270 0.0 0.0 0.00 0.86 0.86 99 1006.9
20260506201911 14 270 0.0 1.6 0.00 0.86 0.86 99 1006.9
20260506201409 14 270 0.0 0.0 0.00 0.86 0.86 99 1007.1
20260506200905 14 235 1.6 1.6 0.18 0.86 0.86 99 1006.8
20260506200401 14 222 0.0 0.0 0.18 0.86 0.86 99 1006.7
20260506195858 14 232 0.0 1.6 0.00 0.84 0.84 99 1007.1
20260506195355 14 228 0.0 1.6 0.00 0.84 0.84 99 1006.9
20260506194852 14 227 1.6 1.6 0.00 0.84 0.84 99 1007.1
20260506194349 14 230 1.6 1.6 0.00 0.84 0.84 99 1007.1
20260506193846 15 224 1.6 3.2 0.00 0.84 0.84 99 1007.2
20260506193343 15 267 0.0 1.6 0.00 0.84 0.84 99 1007.2
20260506192839 15 200 1.6 1.6 0.00 0.84 0.84 99 1007.3
20260506192336 14 199 1.6 3.2 0.00 0.84 0.84 99 1007.2
20260506191833 14 230 1.6 1.6 0.00 0.84 0.84 99 1007.5
20260506191329 14 194 3.2 4.8 0.00 0.84 0.84 99 1007.4
20260506190826 14 219 3.2 3.2 0.00 0.84 0.84 99 1007.3
20260506190322 14 209 4.8 4.8 0.00 0.84 0.84 99 1007.3
20260506185820 14 215 3.2 3.2 0.00 0.84 0.84 99 1007.2
20260506185317 14 236 4.8 4.8 0.00 0.84 0.84 99 1007.3
20260506184814 14 181 4.8 8.0 0.00 0.84 0.84 99 1007.4
20260506184311 14 219 3.2 4.8 0.00 0.84 0.84 99 1007.6
20260506183808 14 254 6.4 9.7 0.00 0.84 0.84 99 1007.6
20260506183303 14 224 3.2 4.8 0.00 0.84 0.84 99 1007.6
20260506182801 14 213 4.8 4.8 0.00 0.84 0.84 99 1007.5
20260506182257 14 231 1.6 1.6 0.00 0.84 0.84 99 1007.7
20260506181755 14 202 3.2 3.2 0.00 0.84 0.84 99 1007.8
20260506181253 14 234 3.2 3.2 0.00 0.84 0.84 99 1007.9
20260506180750 14 220 3.2 3.2 0.13 0.84 0.84 99 1007.8
20260506180246 14 228 3.2 3.2 0.13 0.84 0.84 99 1007.8
20260506175742 14 217 4.8 4.8 0.18 0.81 0.81 99 1008.1
20260506175239 14 199 4.8 4.8 0.18 0.81 0.81 99 1007.9
20260506174737 14 228 3.2 3.2 0.18 0.81 0.81 99 1007.9
20260506174233 13 231 1.6 3.2 0.00 0.79 0.79 99 1008.1
20260506173732 13 220 3.2 4.8 0.00 0.79 0.79 99 1007.8
20260506173228 13 220 1.6 1.6 0.13 0.79 0.79 99 1007.8
20260506172725 13 224 1.6 3.2 0.13 0.79 0.79 99 1008.0
20260506172221 13 211 3.2 3.2 0.00 0.76 0.76 99 1008.0
20260506171719 13 195 4.8 4.8 0.00 0.76 0.76 99 1007.8
20260506171216 13 212 3.2 3.2 0.00 0.76 0.76 99 1007.9
20260506170714 13 213 4.8 4.8 0.00 0.76 0.76 99 1007.9
20260506170210 13 204 3.2 3.2 0.18 0.76 0.76 99 1007.8
20260506165709 13 207 3.2 3.2 0.36 0.76 0.76 99 1008.0
20260506165205 13 204 4.8 4.8 0.30 0.74 0.74 99 1008.0
20260506164702 13 196 4.8 4.8 0.30 0.71 0.71 99 1008.2
20260506164159 13 199 3.2 4.8 0.30 0.69 0.69 99 1008.1
20260506163655 13 210 3.2 3.2 0.30 0.66 0.66 99 1008.1
20260506163151 13 200 4.8 4.8 0.18 0.64 0.64 99 1008.2
20260506162647 14 212 3.2 3.2 0.00 0.61 0.61 99 1008.0
20260506162145 14 191 4.8 4.8 0.00 0.61 0.61 99 1008.1
20260506161642 14 211 3.2 3.2 0.13 0.61 0.61 99 1008.1
20260506161139 13 208 1.6 1.6 0.30 0.61 0.61 99 1008.2
20260506160636 13 189 3.2 4.8 0.30 0.58 0.58 99 1008.1
20260506160133 13 210 3.2 3.2 0.30 0.56 0.56 99 1008.4
20260506155632 13 213 6.4 8.0 0.43 0.56 0.56 99 1008.4
20260506155128 13 205 4.8 4.8 0.30 0.46 0.46 99 1008.7
20260506153225 13 212 3.2 4.8 0.18 0.43 0.43 99 1008.7
20260506152721 13 163 4.8 4.8 0.00 0.41 0.41 99 1008.5
20260506152219 13 208 3.2 8.0 0.18 0.41 0.41 99 1008.4
20260506151718 14 209 4.8 4.8 0.18 0.41 0.41 99 1008.4
20260506151214 14 202 4.8 4.8 0.18 0.41 0.41 99 1008.7
20260506150710 14 199 3.2 3.2 0.13 0.38 0.38 99 1008.6
20260506150207 13 205 3.2 3.2 0.30 0.38 0.38 99 1008.6
20260506145704 13 202 4.8 4.8 0.18 0.36 0.36 99 1008.6
20260506145201 14 203 1.6 1.6 0.13 0.33 0.33 99 1008.5
20260506144659 14 206 3.2 3.2 0.30 0.33 0.33 99 1008.7
20260506144155 14 205 4.8 4.8 0.18 0.30 0.30 99 1008.5
20260506143653 14 201 1.6 1.6 0.13 0.28 0.28 99 1008.7
20260506143151 14 199 1.6 1.6 0.30 0.28 0.28 99 1008.6
20260506142649 14 197 1.6 1.6 0.18 0.25 0.25 99 1009.0
20260506142146 14 198 3.2 3.2 0.13 0.23 0.23 99 1009.2
20260506141644 14 197 3.2 3.2 0.30 0.23 0.23 99 1009.4
20260506141142 14 201 3.2 3.2 0.43 0.23 0.23 99 1009.0
20260506140639 14 204 3.2 3.2 0.30 0.18 0.18 99 1009.4
20260506140136 14 202 3.2 3.2 0.36 0.15 0.15 99 1009.1
20260506135633 14 202 3.2 3.2 0.18 0.13 0.13 99 1009.2
20260506135129 14 199 1.6 1.6 0.13 0.10 0.10 99 1009.4
20260506134626 15 205 1.6 3.2 0.30 0.10 0.10 99 1009.4
20260506134122 15 205 1.6 1.6 0.18 0.08 0.08 98 1009.4
20260506133619 15 205 4.8 4.8 0.30 0.08 0.08 97 1009.4
20260506133116 15 199 0.0 1.6 0.13 0.05 0.05 96 1009.7
20260506132614 15 201 3.2 3.2 0.00 0.03 0.03 95 1009.6
20260506132111 15 200 1.6 3.2 0.00 0.03 0.03 95 1009.6
20260506131608 15 203 1.6 3.2 0.00 0.03 0.03 95 1009.7
20260506131104 15 202 1.6 1.6 0.00 0.03 0.03 94 1009.5
20260506130601 15 202 3.2 4.8 0.00 0.03 0.03 94 1009.6
20260506130059 15 203 3.2 3.2 0.00 0.03 0.03 94 1009.4
20260506125557 15 174 4.8 8.0 0.00 0.03 0.03 93 1009.2
20260506125054 15 201 0.0 1.6 0.18 0.03 0.03 94 1009.4
20260506124552 15 199 3.2 3.2 0.18 0.03 0.03 94 1009.0
20260506124049 15 202 1.6 1.6 0.00 0.00 0.00 94 1009.0
20260506123547 15 211 4.8 8.0 0.00 0.00 0.00 93 1008.9
20260506123045 15 194 4.8 4.8 0.00 0.00 0.00 93 1009.0
20260506122541 15 196 3.2 3.2 0.00 0.00 0.00 92 1008.7
20260506122040 15 187 1.6 3.2 0.00 0.00 0.00 92 1009.1
20260506121537 15 196 1.6 1.6 0.00 0.00 0.00 92 1009.1
20260506121033 15 197 3.2 3.2 0.00 0.00 0.00 93 1009.1
20260506120531 15 200 1.6 1.6 0.00 0.00 0.00 92 1009.1
20260506120028 15 200 1.6 3.2 0.00 0.00 0.00 91 1009.5
20260506115526 15 195 1.6 1.6 0.00 0.00 0.00 90 1009.4
20260506115024 15 194 3.2 3.2 0.00 0.00 0.00 90 1009.4
20260506114521 16 199 3.2 3.2 0.00 0.00 0.00 88 1009.4
20260506114020 16 196 1.6 3.2 0.00 0.00 0.00 86 1009.2
20260506113517 16 189 3.2 4.8 0.00 0.00 0.00 86 1009.2
20260506113015 16 200 4.8 4.8 0.00 0.00 0.00 86 1009.1
20260506112511 16 198 3.2 3.2 0.00 0.00 0.00 86 1009.4
20260506112008 16 201 1.6 3.2 0.00 0.00 0.00 85 1009.1
20260506111506 16 200 3.2 3.2 0.00 0.00 0.00 85 1009.4
20260506111003 16 197 4.8 4.8 0.00 0.00 0.00 85 1009.2
20260506110501 16 203 4.8 4.8 0.00 0.00 0.00 84 1009.1
20260506105957 16 197 4.8 4.8 0.00 0.00 0.00 85 1009.1
20260506105453 15 204 4.8 4.8 0.00 0.00 0.00 84 1008.7
20260506104951 15 198 3.2 3.2 0.00 0.00 0.00 84 1008.9
20260506104449 15 199 8.0 11.3 0.00 0.00 0.00 85 1008.7
20260506103947 15 196 3.2 4.8 0.00 0.00 0.00 84 1008.8
20260506103444 15 197 3.2 3.2 0.00 0.00 0.00 84 1008.6
20260506102940 15 203 6.4 9.7 0.00 0.00 0.00 83 1008.8
20260506102439 15 200 4.8 8.0 0.00 0.00 0.00 83 1008.6
20260506101936 15 195 4.8 4.8 0.00 0.00 0.00 83 1008.7
20260506101432 15 200 1.6 3.2 0.00 0.00 0.00 82 1008.8
20260506100930 15 202 4.8 4.8 0.00 0.00 0.00 82 1009.0
20260506100428 15 196 4.8 4.8 0.00 0.00 0.00 82 1008.8
20260506095925 15 197 1.6 3.2 0.00 0.00 0.00 82 1008.6
20260506095424 15 200 4.8 4.8 0.00 0.00 0.00 82 1009.0
20260506094919 15 196 4.8 4.8 0.00 0.00 0.00 82 1009.0
20260506094418 15 200 4.8 4.8 0.00 0.00 0.00 81 1008.8
20260506093916 15 200 4.8 8.0 0.00 0.00 0.00 81 1008.7
20260506093413 15 197 3.2 3.2 0.00 0.00 0.00 81 1008.9
20260506092911 15 202 3.2 3.2 0.00 0.00 0.00 81 1008.9
20260506092409 15 199 4.8 4.8 0.00 0.00 0.00 80 1008.8
20260506091905 15 193 4.8 4.8 0.00 0.00 0.00 80 1008.8
20260506091403 15 192 4.8 4.8 0.00 0.00 0.00 80 1008.8
20260506090900 15 193 4.8 4.8 0.00 0.00 0.00 79 1008.7
20260506090358 15 190 4.8 4.8 0.00 0.00 0.00 79 1009.0
20260506085854 16 193 3.2 3.2 0.00 0.00 0.00 79 1008.9
20260506085351 16 195 4.8 4.8 0.00 0.00 0.00 78 1009.2
20260506084847 16 190 1.6 4.8 0.00 0.00 0.00 78 1009.0
20260506084344 16 190 4.8 4.8 0.00 0.00 0.00 77 1009.1
20260506083840 16 191 4.8 4.8 0.00 0.00 0.00 76 1009.1
20260506083338 16 191 4.8 4.8 0.00 0.00 0.00 76 1009.2
20260506082835 16 190 4.8 4.8 0.00 0.00 0.00 76 1008.9
20260506082332 16 192 3.2 4.8 0.00 0.00 0.00 76 1008.8
20260506081828 16 192 3.2 3.2 0.00 0.00 0.00 75 1009.1
20260506081326 16 192 3.2 3.2 0.00 0.00 0.00 75 1009.1
20260506080823 16 192 4.8 4.8 0.00 0.00 0.00 75 1009.2
20260506080319 16 192 3.2 3.2 0.00 0.00 0.00 75 1009.2
20260506073304 16 191 4.8 4.8 0.00 0.00 0.00 73 1009.1
20260506072801 16 193 6.4 8.0 0.00 0.00 0.00 73 1009.1
20260506072258 16 190 3.2 3.2 0.00 0.00 0.00 72 1009.5
20260506071756 16 192 4.8 8.0 0.00 0.00 0.00 72 1009.4
20260506071254 16 193 3.2 3.2 0.00 0.00 0.00 72 1009.6
20260506070750 16 201 1.6 1.6 0.00 0.00 0.00 71 1009.2
20260506070247 16 207 1.6 3.2 0.00 0.00 0.00 72 1009.7
20260506062224 17 221 3.2 4.8 0.00 0.00 0.00 69 1010.0
20260506061720 17 197 3.2 4.8 0.00 0.00 0.00 70 1010.0
20260506061218 17 229 3.2 3.2 0.00 0.00 0.00 70 1010.2
20260506060716 17 223 3.2 3.2 0.00 0.00 0.00 68 1010.2
20260506060213 17 227 1.6 1.6 0.00 0.00 0.00 69 1010.2
20260506051145 18 216 4.8 4.8 0.00 0.00 0.00 65 1010.1
20260506050643 18 205 4.8 4.8 0.00 0.00 0.00 64 1010.2
20260506050140 17 222 3.2 3.2 0.00 0.00 0.00 65 1010.3
20260506045132 17 236 3.2 3.2 0.00 0.00 0.00 65 1010.4
20260506044630 18 206 1.6 3.2 0.00 0.00 0.00 64 1010.2
20260506044122 18 208 4.8 4.8 0.00 0.00 0.00 63 1010.2
20260506043619 18 228 1.6 1.6 0.00 0.00 0.00 63 1010.0
20260506043117 18 220 3.2 3.2 0.00 0.00 0.00 63 1010.3
20260506042616 18 223 1.6 3.2 0.00 0.00 0.00 62 1010.2
20260506042114 18 203 3.2 3.2 0.00 0.00 0.00 62 1010.4
20260506041612 18 234 4.8 4.8 0.00 0.00 0.00 61 1010.3
20260506041108 18 215 4.8 8.0 0.00 0.00 0.00 61 1010.2
20260506040607 18 236 0.0 0.0 0.00 0.00 0.00 61 1010.2
20260506035600 18 222 1.6 3.2 0.00 0.00 0.00 61 1010.3
20260506035056 18 209 4.8 4.8 0.00 0.00 0.00 60 1010.5
20260506034553 18 225 3.2 4.8 0.00 0.00 0.00 59 1010.3
20260506034050 18 207 3.2 3.2 0.00 0.00 0.00 59 1010.2
20260506033548 18 194 1.6 3.2 0.00 0.00 0.00 60 1010.1
20260506033044 18 173 6.4 8.0 0.00 0.00 0.00 59 1010.0
20260506032542 18 210 1.6 3.2 0.00 0.00 0.00 59 1010.2
20260506032038 18 219 3.2 3.2 0.00 0.00 0.00 59 1010.1
20260506031536 18 203 3.2 3.2 0.00 0.00 0.00 58 1010.1
20260506031033 19 215 3.2 3.2 0.00 0.00 0.00 57 1010.4
20260506030531 19 232 3.2 3.2 0.00 0.00 0.00 56 1010.1
20260506030028 20 208 3.2 3.2 0.00 0.00 0.00 56 1010.3
20260506025525 19 183 6.4 8.0 0.00 0.00 0.00 57 1010.3
20260506025021 19 234 3.2 3.2 0.00 0.00 0.00 56 1010.4
20260506024518 20 223 3.2 3.2 0.00 0.00 0.00 55 1010.1
20260506024014 20 214 4.8 4.8 0.00 0.00 0.00 55 1010.3
20260506023510 20 231 0.0 0.0 0.00 0.00 0.00 55 1010.5
20260506023009 20 254 4.8 4.8 0.00 0.00 0.00 54 1010.5
20260506022506 20 219 4.8 4.8 0.00 0.00 0.00 54 1010.4
20260506022003 20 220 3.2 3.2 0.00 0.00 0.00 54 1010.4
20260506021500 20 223 4.8 4.8 0.00 0.00 0.00 53 1010.5
20260506020957 20 225 3.2 3.2 0.00 0.00 0.00 54 1010.6
20260506020455 20 205 3.2 3.2 0.00 0.00 0.00 53 1010.4
20260506015952 20 221 1.6 1.6 0.00 0.00 0.00 54 1010.3
20260506015449 20 230 3.2 4.8 0.00 0.00 0.00 54 1010.4
20260506014946 20 224 3.2 4.8 0.00 0.00 0.00 54 1010.2
20260506014443 20 241 1.6 3.2 0.00 0.00 0.00 54 1010.0
20260506013939 20 220 0.0 0.0 0.00 0.00 0.00 54 1010.2
20260506013438 20 226 3.2 3.2 0.00 0.00 0.00 53 1009.9
20260506012933 21 201 3.2 3.2 0.00 0.00 0.00 53 1009.8
20260506012430 21 205 3.2 3.2 0.00 0.00 0.00 52 1009.8
20260506011927 21 218 4.8 4.8 0.00 0.00 0.00 52 1009.9
20260506011425 21 223 3.2 3.2 0.00 0.00 0.00 52 1009.6
20260506010921 21 215 3.2 3.2 0.00 0.00 0.00 52 1009.5
20260506010420 21 229 3.2 3.2 0.00 0.00 0.00 53 1009.7
20260506005916 21 237 3.2 3.2 0.00 0.00 0.00 51 1009.6
20260506005414 21 214 1.6 1.6 0.00 0.00 0.00 51 1009.7
20260506004909 21 206 3.2 3.2 0.00 0.00 0.00 52 1009.9
20260506004407 21 226 3.2 3.2 0.00 0.00 0.00 52 1009.6
20260506003903 21 232 4.8 4.8 0.00 0.00 0.00 51 1009.5
20260506003359 21 234 3.2 3.2 0.00 0.00 0.00 51 1009.6
20260506002856 21 194 4.8 4.8 0.00 0.00 0.00 51 1009.2
20260506002352 21 211 3.2 4.8 0.00 0.00 0.00 52 1009.2
20260506001848 21 227 4.8 4.8 0.00 0.00 0.00 51 1009.2
20260506001345 21 216 3.2 3.2 0.00 0.00 0.00 50 1009.2
20260506000842 22 238 1.6 3.2 0.00 0.00 0.00 50 1009.1
20260506000340 22 227 4.8 4.8 0.00 0.00 0.00 48 1009.0
20260505235836 22 209 3.2 4.8 0.00 0.00 0.00 48 1009.1
20260505235334 22 213 4.8 4.8 0.00 0.00 0.00 49 1009.1
20260505234830 22 241 1.6 1.6 0.00 0.00 0.00 49 1009.0
20260505234329 22 238 1.6 1.6 0.00 0.00 0.00 48 1009.0
20260505233825 22 228 1.6 3.2 0.00 0.00 0.00 49 1009.1
20260505233323 22 212 4.8 4.8 0.00 0.00 0.00 48 1009.2
20260505232820 22 192 3.2 3.2 0.00 0.00 0.00 48 1009.0
20260505232318 22 214 1.6 3.2 0.00 0.00 0.00 47 1009.1
20260505231814 22 246 1.6 3.2 0.00 0.00 0.00 47 1009.1
20260505231312 22 204 4.8 4.8 0.00 0.00 0.00 46 1009.0
20260505230810 22 236 4.8 4.8 0.00 0.00 0.00 46 1008.9
20260505230307 22 248 1.6 1.6 0.00 0.00 0.00 47 1008.9
20260505225803 22 275 4.8 4.8 0.00 0.00 0.00 47 1008.7
20260505225301 22 215 1.6 1.6 0.00 0.00 0.00 47 1008.6
20260505224755 22 230 1.6 1.6 0.00 0.00 0.00 46 1008.7
20260505224254 22 230 1.6 3.2 0.00 0.00 0.00 46 1008.4
20260505223751 22 269 4.8 4.8 0.00 0.00 0.00 46 1008.9
20260505223247 22 195 4.8 4.8 0.00 0.00 0.00 46 1008.6
20260505222743 22 199 4.8 4.8 0.00 0.00 0.00 46 1008.5
20260505222240 23 191 1.6 3.2 0.00 0.00 0.00 47 1008.4
20260505221737 23 241 8.0 9.7 0.00 0.00 0.00 46 1008.5
20260505221233 23 180 4.8 4.8 0.00 0.00 0.00 46 1008.5
20260505220730 23 232 4.8 8.0 0.00 0.00 0.00 47 1008.6
20260505220228 23 249 3.2 3.2 0.00 0.00 0.00 46 1008.5
20260505215726 23 261 3.2 3.2 0.00 0.00 0.00 45 1008.4
20260505215223 23 206 6.4 9.7 0.00 0.00 0.00 44 1008.6
20260505214721 23 207 6.4 8.0 0.00 0.00 0.00 44 1008.4
20260505214218 23 254 1.6 3.2 0.00 0.00 0.00 44 1008.3
20260505213715 23 206 4.8 8.0 0.00 0.00 0.00 44 1008.4
20260505213213 23 245 1.6 3.2 0.00 0.00 0.00 44 1008.5
20260505212708 23 232 3.2 3.2 0.00 0.00 0.00 42 1008.3
20260505212206 23 228 1.6 3.2 0.00 0.00 0.00 41 1007.9
20260505211703 23 194 3.2 3.2 0.00 0.00 0.00 40 1008.0
20260505211200 24 265 3.2 3.2 0.00 0.00 0.00 39 1008.1
20260505210656 24 226 8.0 11.3 0.00 0.00 0.00 38 1007.9
20260505210153 24 207 4.8 4.8 0.00 0.00 0.00 39 1008.1
20260505205651 24 287 3.2 8.0 0.00 0.00 0.00 39 1007.9
20260505205149 25 212 4.8 9.7 0.00 0.00 0.00 39 1008.0
20260505204645 25 189 6.4 8.0 0.00 0.00 0.00 38 1007.9
20260505204143 25 219 6.4 9.7 0.00 0.00 0.00 38 1008.0
20260505203640 26 260 3.2 4.8 0.00 0.00 0.00 38 1008.2
20260505203137 25 225 8.0 9.7 0.00 0.00 0.00 37 1008.0
20260505202632 25 278 4.8 4.8 0.00 0.00 0.00 37 1008.2